UKV3901 KJAC-CYVR

Flight info

Callsign UKV3901
Flight time 1h 59m
Altitude 40000
Route ALPIN5 IDA DCT KUBOA DCT ZOOMR DCT TWISP DCT BOOTH CANUC6
Aircraft B737/M-SDE2E3FGIRWY/LB1

Departure

Time 2026-05-07 14:17
Airport Jackson Hole Airport (KJAC)

Arrival

Time 2026-05-07 16:16
Airport Vancouver International Airport (CYVR)
Time Latitude Longitude Altitude Speed Heading
2026-05-07 14:01 43.60109 -110.73829 6414 ft 0 kts 110°
2026-05-07 14:12 43.60088 -110.73829 6413 ft 4 kts 217°
2026-05-07 14:12 43.60084 -110.73869 6412 ft 5 kts 304°
2026-05-07 14:12 43.60123 -110.73899 6413 ft 8 kts 349°
2026-05-07 14:13 43.60184 -110.73883 6413 ft 10 kts 16°
2026-05-07 14:13 43.60259 -110.73844 6412 ft 13 kts 20°
2026-05-07 14:13 43.60353 -110.73798 6413 ft 15 kts 19°
2026-05-07 14:13 43.60459 -110.73746 6413 ft 17 kts 19°
2026-05-07 14:14 43.60577 -110.73690 6411 ft 19 kts 19°
2026-05-07 14:14 43.60706 -110.73626 6414 ft 20 kts 20°
2026-05-07 14:14 43.60835 -110.73564 6414 ft 20 kts 20°
2026-05-07 14:14 43.60963 -110.73501 6414 ft 19 kts 20°
2026-05-07 14:15 43.61095 -110.73435 6412 ft 21 kts 19°
2026-05-07 14:15 43.61240 -110.73364 6413 ft 23 kts 19°
2026-05-07 14:15 43.61395 -110.73288 6413 ft 24 kts 20°
2026-05-07 14:15 43.61500 -110.73275 6414 ft 14 kts 317°
2026-05-07 14:16 43.61507 -110.73389 6414 ft 13 kts 220°
2026-05-07 14:16 43.61450 -110.73425 6413 ft 0 kts 198°
2026-05-07 14:16 43.61236 -110.73530 6414 ft 74 kts 199°
2026-05-07 14:17 43.60492 -110.73893 6415 ft 149 kts 199°
2026-05-07 14:17 43.59340 -110.74467 6644 ft 193 kts 200°
2026-05-07 14:17 43.58073 -110.75258 7400 ft 207 kts 217°
2026-05-07 14:17 43.57004 -110.76626 8198 ft 212 kts 229°
2026-05-07 14:18 43.56157 -110.78343 8832 ft 232 kts 238°
2026-05-07 14:18 43.54881 -110.79923 9205 ft 269 kts 208°
2026-05-07 14:18 43.53065 -110.80972 9976 ft 290 kts 205°
2026-05-07 14:18 43.51139 -110.82018 10696 ft 311 kts 205°
2026-05-07 14:19 43.49022 -110.83184 10977 ft 343 kts 205°
2026-05-07 14:19 43.46758 -110.84450 11719 ft 356 kts 206°
2026-05-07 14:19 43.44456 -110.85754 12790 ft 360 kts 206°
2026-05-07 14:19 43.42129 -110.87089 13831 ft 365 kts 207°
2026-05-07 14:20 43.39765 -110.88457 14710 ft 373 kts 208°
2026-05-07 14:20 43.37356 -110.89851 15616 ft 378 kts 208°
2026-05-07 14:20 43.34927 -110.91258 16541 ft 383 kts 208°
2026-05-07 14:20 43.32449 -110.92697 17400 ft 390 kts 208°
2026-05-07 14:21 43.29928 -110.94159 18222 ft 397 kts 208°
2026-05-07 14:21 43.27521 -110.95984 18905 ft 393 kts 225°
2026-05-07 14:21 43.25724 -110.98713 19764 ft 382 kts 243°
2026-05-07 14:21 43.24679 -111.02010 20503 ft 375 kts 263°
2026-05-07 14:22 43.24449 -111.05534 21264 ft 371 kts 275°
2026-05-07 14:22 43.24776 -111.09038 21980 ft 371 kts 288°
2026-05-07 14:22 43.25606 -111.12393 22724 ft 373 kts 293°
2026-05-07 14:22 43.26555 -111.15720 23486 ft 375 kts 294°
2026-05-07 14:23 43.27521 -111.19003 24147 ft 377 kts 295°
2026-05-07 14:23 43.28505 -111.22359 24733 ft 382 kts 294°
2026-05-07 14:23 43.29493 -111.25762 25257 ft 386 kts 294°
2026-05-07 14:23 43.30479 -111.29204 25828 ft 388 kts 294°
2026-05-07 14:24 43.31461 -111.32670 26420 ft 391 kts 294°
2026-05-07 14:24 43.32447 -111.36161 26955 ft 394 kts 294°
2026-05-07 14:24 43.33441 -111.39687 27446 ft 397 kts 294°
2026-05-07 14:24 43.34440 -111.43242 27928 ft 401 kts 294°
2026-05-07 14:25 43.35445 -111.46832 28466 ft 404 kts 294°
2026-05-07 14:25 43.36454 -111.50446 28993 ft 406 kts 295°
2026-05-07 14:25 43.37468 -111.54079 29474 ft 409 kts 295°
2026-05-07 14:25 43.38488 -111.57741 29929 ft 412 kts 295°
2026-05-07 14:26 43.39515 -111.61431 30318 ft 415 kts 295°
2026-05-07 14:26 43.40545 -111.65142 30796 ft 415 kts 295°
2026-05-07 14:26 43.41568 -111.68834 31439 ft 410 kts 295°
2026-05-07 14:26 43.42575 -111.72479 32091 ft 406 kts 295°
2026-05-07 14:27 43.43575 -111.76096 32650 ft 404 kts 295°
2026-05-07 14:27 43.44570 -111.79700 33167 ft 402 kts 295°
2026-05-07 14:27 43.45561 -111.83290 33692 ft 400 kts 295°
2026-05-07 14:27 43.46530 -111.86811 34232 ft 397 kts 295°
2026-05-07 14:28 43.47506 -111.90357 34688 ft 395 kts 295°
2026-05-07 14:28 43.48477 -111.93893 35077 ft 395 kts 296°
2026-05-07 14:28 43.49449 -111.97432 35453 ft 394 kts 296°
2026-05-07 14:28 43.50413 -112.00953 35850 ft 392 kts 296°
2026-05-07 14:29 43.51397 -112.04441 36242 ft 388 kts 300°
2026-05-07 14:29 43.52778 -112.07588 36576 ft 381 kts 311°
2026-05-07 14:29 43.54557 -112.10267 36972 ft 377 kts 316°
2026-05-07 14:29 43.56413 -112.12811 37371 ft 375 kts 317°
2026-05-07 14:30 43.58280 -112.15320 37749 ft 374 kts 317°
2026-05-07 14:30 43.60131 -112.17804 38202 ft 368 kts 318°
2026-05-07 14:30 43.61954 -112.20264 38634 ft 365 kts 317°
2026-05-07 14:30 43.63769 -112.22728 38820 ft 367 kts 317°
2026-05-07 14:31 43.65595 -112.25220 38927 ft 371 kts 317°
2026-05-07 14:31 43.67433 -112.27740 39083 ft 373 kts 317°
2026-05-07 14:31 43.69274 -112.30271 39276 ft 374 kts 317°
2026-05-07 14:31 43.71092 -112.32777 39469 ft 375 kts 317°
2026-05-07 14:32 43.72941 -112.35331 39634 ft 376 kts 317°
2026-05-07 14:32 43.74791 -112.37888 39869 ft 376 kts 316°
2026-05-07 14:32 43.76643 -112.40452 39973 ft 379 kts 316°
2026-05-07 14:33 43.80394 -112.45652 39970 ft 382 kts 316°
2026-05-07 14:33 43.84116 -112.50825 39973 ft 376 kts 316°
2026-05-07 14:34 43.87791 -112.55940 39980 ft 373 kts 316°
2026-05-07 14:34 43.91440 -112.61026 39979 ft 371 kts 316°
2026-05-07 14:35 43.95072 -112.66099 39983 ft 370 kts 316°
2026-05-07 14:35 43.98695 -112.71168 39950 ft 370 kts 316°
2026-05-07 14:36 44.02323 -112.76253 39969 ft 371 kts 316°
2026-05-07 14:36 44.05969 -112.81374 39973 ft 374 kts 316°
2026-05-07 14:37 44.09638 -112.86537 39972 ft 376 kts 315°
2026-05-07 14:37 44.15180 -112.94352 39972 ft 379 kts 315°
2026-05-07 14:38 44.18889 -112.99596 39965 ft 381 kts 315°
2026-05-07 14:38 44.22610 -113.04867 39973 ft 381 kts 315°
2026-05-07 14:39 44.26303 -113.10106 39960 ft 381 kts 315°
2026-05-07 14:39 44.30015 -113.15386 39968 ft 381 kts 315°
2026-05-07 14:40 44.33716 -113.20659 39965 ft 380 kts 315°
2026-05-07 14:40 44.36779 -113.25030 39966 ft 378 kts 315°
2026-05-07 14:41 44.41066 -113.31162 39968 ft 377 kts 315°
2026-05-07 14:41 44.44098 -113.35528 39955 ft 377 kts 315°
2026-05-07 14:42 44.47761 -113.40773 39970 ft 376 kts 315°
2026-05-07 14:42 44.51419 -113.46022 39978 ft 377 kts 315°
2026-05-07 14:43 44.55079 -113.51278 39965 ft 376 kts 315°
2026-05-07 14:43 44.58726 -113.56549 39964 ft 376 kts 315°
2026-05-07 14:44 44.62371 -113.61824 39963 ft 376 kts 315°
2026-05-07 14:44 44.66014 -113.67099 39965 ft 377 kts 315°
2026-05-07 14:45 44.69658 -113.72400 39951 ft 377 kts 315°
2026-05-07 14:45 44.73281 -113.77668 39949 ft 377 kts 315°
2026-05-07 14:46 44.76931 -113.82983 39950 ft 378 kts 315°
2026-05-07 14:46 44.80581 -113.88310 39942 ft 378 kts 315°
2026-05-07 14:47 44.84232 -113.93651 39959 ft 379 kts 314°
2026-05-07 14:47 44.87862 -113.98973 39949 ft 379 kts 314°
2026-05-07 14:48 44.91516 -114.04341 39954 ft 379 kts 314°
2026-05-07 14:48 44.95156 -114.09697 39966 ft 377 kts 314°
2026-05-07 14:49 44.98768 -114.15010 39968 ft 376 kts 315°
2026-05-07 14:49 45.02387 -114.20363 39972 ft 377 kts 314°
2026-05-07 14:50 45.06006 -114.25725 39966 ft 377 kts 314°
2026-05-07 14:50 45.09625 -114.31094 39968 ft 377 kts 314°
2026-05-07 14:51 45.13244 -114.36470 39958 ft 377 kts 314°
2026-05-07 14:51 45.16870 -114.41839 39971 ft 378 kts 314°
2026-05-07 14:52 45.20484 -114.47229 39985 ft 377 kts 314°
2026-05-07 14:52 45.24081 -114.52630 39982 ft 376 kts 314°
2026-05-07 14:53 45.27684 -114.58034 39987 ft 377 kts 314°
2026-05-07 14:53 45.31290 -114.63433 39991 ft 376 kts 314°
2026-05-07 14:54 45.34881 -114.68804 39971 ft 373 kts 314°
2026-05-07 14:54 45.38415 -114.74191 40003 ft 373 kts 313°
2026-05-07 14:55 45.41990 -114.79581 39994 ft 375 kts 313°
2026-05-07 14:55 45.45551 -114.84954 40000 ft 376 kts 313°
2026-05-07 14:56 45.49069 -114.90476 40007 ft 377 kts 311°
2026-05-07 14:56 45.52475 -114.96152 39995 ft 376 kts 311°
2026-05-07 14:57 45.55871 -115.01828 39970 ft 374 kts 311°
2026-05-07 14:57 45.59247 -115.07471 40018 ft 375 kts 310°
2026-05-07 14:58 45.62645 -115.13153 40008 ft 377 kts 311°
2026-05-07 14:58 45.66038 -115.18820 40024 ft 374 kts 310°
2026-05-07 14:59 45.69424 -115.24488 40008 ft 376 kts 310°
2026-05-07 14:59 45.72825 -115.30192 40012 ft 377 kts 310°
2026-05-07 15:00 45.76235 -115.35920 40017 ft 378 kts 310°
2026-05-07 15:00 45.79646 -115.41664 40007 ft 378 kts 310°
2026-05-07 15:01 45.83053 -115.47411 40016 ft 378 kts 310°
2026-05-07 15:01 45.86430 -115.53119 40013 ft 377 kts 310°
2026-05-07 15:02 45.89816 -115.58856 40008 ft 377 kts 310°
2026-05-07 15:02 45.93197 -115.64595 40027 ft 376 kts 310°
2026-05-07 15:03 45.96573 -115.70337 40036 ft 375 kts 310°
2026-05-07 15:03 45.99936 -115.76068 40056 ft 375 kts 310°
2026-05-07 15:04 46.03298 -115.81810 40033 ft 375 kts 310°
2026-05-07 15:04 46.06497 -115.87290 40058 ft 375 kts 310°
2026-05-07 15:05 46.09807 -115.92967 40060 ft 375 kts 309°
2026-05-07 15:05 46.13163 -115.98725 40061 ft 375 kts 309°
2026-05-07 15:06 46.16492 -116.04459 40056 ft 375 kts 309°
2026-05-07 15:06 46.19838 -116.10235 40052 ft 376 kts 309°
2026-05-07 15:07 46.23196 -116.16043 40054 ft 377 kts 309°
2026-05-07 15:07 46.26557 -116.21865 40030 ft 377 kts 309°
2026-05-07 15:08 46.29917 -116.27700 40019 ft 377 kts 309°
2026-05-07 15:08 46.33270 -116.33535 40012 ft 377 kts 309°
2026-05-07 15:09 46.36614 -116.39375 40006 ft 376 kts 309°
2026-05-07 15:09 46.39952 -116.45205 40019 ft 376 kts 309°
2026-05-07 15:10 46.43291 -116.51048 40013 ft 376 kts 309°
2026-05-07 15:10 46.46622 -116.56892 40011 ft 376 kts 309°
2026-05-07 15:11 46.49948 -116.62742 40004 ft 376 kts 309°
2026-05-07 15:11 46.53250 -116.68561 40003 ft 376 kts 309°
2026-05-07 15:12 46.56570 -116.74424 40024 ft 375 kts 309°
2026-05-07 15:12 46.59879 -116.80281 40038 ft 375 kts 309°
2026-05-07 15:13 46.63186 -116.86146 40039 ft 374 kts 309°
2026-05-07 15:13 46.66479 -116.91999 40072 ft 373 kts 308°
2026-05-07 15:14 46.69766 -116.97853 40099 ft 373 kts 308°
2026-05-07 15:14 46.73051 -117.03718 40092 ft 374 kts 308°
2026-05-07 15:15 46.76338 -117.09598 40095 ft 374 kts 308°
2026-05-07 15:15 46.79625 -117.15490 40093 ft 374 kts 308°
2026-05-07 15:16 46.82913 -117.21397 40055 ft 375 kts 308°
2026-05-07 15:16 46.86198 -117.27310 40060 ft 375 kts 308°
2026-05-07 15:17 46.89481 -117.33234 40041 ft 375 kts 308°
2026-05-07 15:17 46.92742 -117.39120 40048 ft 375 kts 308°
2026-05-07 15:18 46.96017 -117.45059 40038 ft 375 kts 308°
2026-05-07 15:18 46.99288 -117.51003 40035 ft 375 kts 308°
2026-05-07 15:19 47.02559 -117.56956 40029 ft 375 kts 308°
2026-05-07 15:19 47.05828 -117.62920 40028 ft 375 kts 308°
2026-05-07 15:20 47.09094 -117.68889 40025 ft 375 kts 308°
2026-05-07 15:20 47.12358 -117.74868 40017 ft 375 kts 308°
2026-05-07 15:21 47.15618 -117.80852 40008 ft 375 kts 308°
2026-05-07 15:21 47.18875 -117.86845 40009 ft 375 kts 308°
2026-05-07 15:22 47.22132 -117.92849 39972 ft 375 kts 307°
2026-05-07 15:22 47.25360 -117.98815 39995 ft 375 kts 307°
2026-05-07 15:23 47.28602 -118.04819 40000 ft 375 kts 307°
2026-05-07 15:23 47.31843 -118.10835 40003 ft 375 kts 307°
2026-05-07 15:24 47.35085 -118.16866 40001 ft 375 kts 307°
2026-05-07 15:24 47.38326 -118.22908 39992 ft 376 kts 307°
2026-05-07 15:25 47.41564 -118.28957 39990 ft 375 kts 307°
2026-05-07 15:25 47.44750 -118.35069 39985 ft 375 kts 306°
2026-05-07 15:26 47.47848 -118.41276 39984 ft 375 kts 306°
2026-05-07 15:26 47.50941 -118.47495 39984 ft 375 kts 306°
2026-05-07 15:27 47.54040 -118.53717 39985 ft 375 kts 306°
2026-05-07 15:27 47.57136 -118.59934 39987 ft 375 kts 306°
2026-05-07 15:28 47.60232 -118.66161 39982 ft 375 kts 306°
2026-05-07 15:28 47.63322 -118.72391 39981 ft 375 kts 306°
2026-05-07 15:29 47.66417 -118.78642 39984 ft 376 kts 306°
2026-05-07 15:29 47.69508 -118.84901 39980 ft 376 kts 306°
2026-05-07 15:30 47.72582 -118.91139 39979 ft 377 kts 306°
2026-05-07 15:30 47.75676 -118.97433 39976 ft 377 kts 306°
2026-05-07 15:31 47.78758 -119.03716 39979 ft 376 kts 305°
2026-05-07 15:31 47.81321 -119.08951 39986 ft 377 kts 305°
2026-05-07 15:32 47.84405 -119.15268 39980 ft 378 kts 305°
2026-05-07 15:32 47.87488 -119.21604 39981 ft 378 kts 305°
2026-05-07 15:33 47.90577 -119.27960 39980 ft 378 kts 305°
2026-05-07 15:33 47.93663 -119.34313 39988 ft 379 kts 305°
2026-05-07 15:34 47.96752 -119.40693 39989 ft 379 kts 305°
2026-05-07 15:34 47.99840 -119.47090 39983 ft 380 kts 305°
2026-05-07 15:35 48.02928 -119.53501 39988 ft 380 kts 305°
2026-05-07 15:35 48.06011 -119.59917 39984 ft 380 kts 305°
2026-05-07 15:36 48.09088 -119.66336 39996 ft 380 kts 304°
2026-05-07 15:36 48.12164 -119.72769 40000 ft 380 kts 304°
2026-05-07 15:37 48.15238 -119.79212 40003 ft 380 kts 304°
2026-05-07 15:37 48.18287 -119.85619 40021 ft 380 kts 304°
2026-05-07 15:38 48.21354 -119.92079 40021 ft 380 kts 304°
2026-05-07 15:38 48.24420 -119.98549 40035 ft 380 kts 304°
2026-05-07 15:39 48.27576 -120.04915 40028 ft 382 kts 311°
2026-05-07 15:39 48.31278 -120.10650 40008 ft 382 kts 312°
2026-05-07 15:40 48.34998 -120.16358 40049 ft 382 kts 312°
2026-05-07 15:40 48.38719 -120.22085 40050 ft 382 kts 312°
2026-05-07 15:41 48.42424 -120.27821 40063 ft 382 kts 311°
2026-05-07 15:41 48.46124 -120.33614 40074 ft 385 kts 312°
2026-05-07 15:42 48.49841 -120.39386 40060 ft 385 kts 312°
2026-05-07 15:42 48.53558 -120.45190 40089 ft 384 kts 311°
2026-05-07 15:43 48.57280 -120.50995 40098 ft 386 kts 312°
2026-05-07 15:43 48.61009 -120.56822 40120 ft 386 kts 311°
2026-05-07 15:44 48.64769 -120.62641 40107 ft 386 kts 311°
2026-05-07 15:44 48.68461 -120.68540 40123 ft 386 kts 311°
2026-05-07 15:45 48.72139 -120.74418 40132 ft 384 kts 311°
2026-05-07 15:45 48.75819 -120.80273 40145 ft 382 kts 311°
2026-05-07 15:46 48.81277 -120.88956 40136 ft 380 kts 311°
2026-05-07 15:47 48.84898 -120.94736 40104 ft 375 kts 312°
2026-05-07 15:47 48.88525 -121.00466 40123 ft 380 kts 312°
2026-05-07 15:48 48.92212 -121.06315 40152 ft 386 kts 311°
2026-05-07 15:48 48.95893 -121.12301 40162 ft 389 kts 311°
2026-05-07 15:49 48.99623 -121.18332 39683 ft 392 kts 311°
2026-05-07 15:49 49.01477 -121.21317 39185 ft 385 kts 311°
2026-05-07 15:49 49.03328 -121.24306 38361 ft 387 kts 311°
2026-05-07 15:49 49.05176 -121.27289 37499 ft 386 kts 311°
2026-05-07 15:50 49.07022 -121.30236 36815 ft 382 kts 311°
2026-05-07 15:50 49.08839 -121.33194 36113 ft 381 kts 311°
2026-05-07 15:50 49.10656 -121.36161 35274 ft 383 kts 311°
2026-05-07 15:50 49.12463 -121.39112 34693 ft 379 kts 312°
2026-05-07 15:51 49.14266 -121.42041 34124 ft 376 kts 312°
2026-05-07 15:51 49.16056 -121.44920 33464 ft 372 kts 312°
2026-05-07 15:51 49.17837 -121.47765 32869 ft 369 kts 313°
2026-05-07 15:51 49.19584 -121.50605 32313 ft 364 kts 312°
2026-05-07 15:52 49.21293 -121.53430 31800 ft 360 kts 311°
2026-05-07 15:52 49.22973 -121.56193 31221 ft 358 kts 312°
2026-05-07 15:52 49.24666 -121.58966 30700 ft 355 kts 312°
2026-05-07 15:52 49.26346 -121.61722 30166 ft 353 kts 312°
2026-05-07 15:53 49.28015 -121.64467 29531 ft 350 kts 312°
2026-05-07 15:53 49.29664 -121.67182 28977 ft 347 kts 312°
2026-05-07 15:53 49.31301 -121.69875 28417 ft 343 kts 312°
2026-05-07 15:53 49.32923 -121.72536 27854 ft 339 kts 312°
2026-05-07 15:54 49.34526 -121.75154 27317 ft 336 kts 312°
2026-05-07 15:54 49.36113 -121.77776 26779 ft 334 kts 312°
2026-05-07 15:54 49.37689 -121.80379 26221 ft 332 kts 312°
2026-05-07 15:54 49.39260 -121.82978 25681 ft 331 kts 312°
2026-05-07 15:55 49.40817 -121.85556 25140 ft 329 kts 312°
2026-05-07 15:55 49.42375 -121.88137 24617 ft 328 kts 312°
2026-05-07 15:55 49.43922 -121.90706 24107 ft 328 kts 311°
2026-05-07 15:55 49.45473 -121.93303 23465 ft 332 kts 313°
2026-05-07 15:56 49.47058 -121.95917 22878 ft 335 kts 313°
2026-05-07 15:56 49.48645 -121.98564 22306 ft 338 kts 310°
2026-05-07 15:56 49.49823 -122.01673 21708 ft 337 kts 291°
2026-05-07 15:56 49.50270 -122.05191 21178 ft 338 kts 275°
2026-05-07 15:57 49.50073 -122.08793 20640 ft 341 kts 261°
2026-05-07 15:57 49.49218 -122.12209 20099 ft 346 kts 245°
2026-05-07 15:57 49.47975 -122.15385 19564 ft 347 kts 242°
2026-05-07 15:57 49.46678 -122.18514 19062 ft 346 kts 241°
2026-05-07 15:58 49.45395 -122.21650 18638 ft 348 kts 242°
2026-05-07 15:58 49.44117 -122.24829 18189 ft 349 kts 242°
2026-05-07 15:58 49.42849 -122.28016 17728 ft 350 kts 242°
2026-05-07 15:58 49.41582 -122.31202 17162 ft 351 kts 241°
2026-05-07 15:59 49.40317 -122.34375 16727 ft 346 kts 241°
2026-05-07 15:59 49.39044 -122.37486 16284 ft 341 kts 239°
2026-05-07 15:59 49.37768 -122.40462 15884 ft 337 kts 239°
2026-05-07 15:59 49.36471 -122.43449 15477 ft 336 kts 238°
2026-05-07 16:00 49.35177 -122.46433 15083 ft 335 kts 238°
2026-05-07 16:00 49.33891 -122.49408 14704 ft 334 kts 238°
2026-05-07 16:00 49.32612 -122.52369 14293 ft 333 kts 238°
2026-05-07 16:00 49.31335 -122.55327 13880 ft 333 kts 238°
2026-05-07 16:01 49.30063 -122.58275 13439 ft 331 kts 238°
2026-05-07 16:01 49.28799 -122.61204 13028 ft 328 kts 238°
2026-05-07 16:01 49.27545 -122.64104 12626 ft 325 kts 237°
2026-05-07 16:01 49.26305 -122.66968 12239 ft 321 kts 237°
2026-05-07 16:02 49.25108 -122.69822 11837 ft 314 kts 244°
2026-05-07 16:02 49.24517 -122.72971 11477 ft 305 kts 266°
2026-05-07 16:02 49.24664 -122.76151 11141 ft 296 kts 280°
2026-05-07 16:02 49.25035 -122.79225 10801 ft 292 kts 281°
2026-05-07 16:03 49.25423 -122.82260 10451 ft 290 kts 281°
2026-05-07 16:03 49.25795 -122.85275 10110 ft 287 kts 281°
2026-05-07 16:03 49.26150 -122.88257 9734 ft 283 kts 280°
2026-05-07 16:03 49.26495 -122.91200 9381 ft 278 kts 280°
2026-05-07 16:04 49.26833 -122.94106 9028 ft 275 kts 280°
2026-05-07 16:04 49.27164 -122.96957 8694 ft 270 kts 280°
2026-05-07 16:04 49.27489 -122.99776 8381 ft 266 kts 280°
2026-05-07 16:04 49.27809 -123.02549 8069 ft 263 kts 280°
2026-05-07 16:05 49.28129 -123.05289 7755 ft 260 kts 280°
2026-05-07 16:05 49.28449 -123.07993 7468 ft 256 kts 280°
2026-05-07 16:05 49.28765 -123.10661 7166 ft 253 kts 280°
2026-05-07 16:05 49.29078 -123.13303 6886 ft 251 kts 280°
2026-05-07 16:06 49.29388 -123.15932 6600 ft 251 kts 280°
2026-05-07 16:06 49.29698 -123.18565 6267 ft 250 kts 281°
2026-05-07 16:06 49.30005 -123.21178 5966 ft 248 kts 280°
2026-05-07 16:06 49.30303 -123.23731 5682 ft 245 kts 280°
2026-05-07 16:07 49.30602 -123.26311 5435 ft 240 kts 280°
2026-05-07 16:07 49.30875 -123.28798 5246 ft 234 kts 279°
2026-05-07 16:07 49.31136 -123.31219 5068 ft 228 kts 279°
2026-05-07 16:07 49.31389 -123.33585 4894 ft 228 kts 280°
2026-05-07 16:08 49.31651 -123.35983 4729 ft 229 kts 279°
2026-05-07 16:08 49.31911 -123.38392 4559 ft 228 kts 279°
2026-05-07 16:08 49.32168 -123.40775 4381 ft 226 kts 279°
2026-05-07 16:08 49.32423 -123.43153 4212 ft 226 kts 279°
2026-05-07 16:09 49.32675 -123.45517 4012 ft 223 kts 279°
2026-05-07 16:09 49.32920 -123.47815 3957 ft 214 kts 279°
2026-05-07 16:09 49.33134 -123.50031 3891 ft 206 kts 271°
2026-05-07 16:09 49.32770 -123.52099 3688 ft 202 kts 234°
2026-05-07 16:10 49.31691 -123.53379 3457 ft 198 kts 197°
2026-05-07 16:10 49.30372 -123.53851 3211 ft 197 kts 191°
2026-05-07 16:10 49.29019 -123.54230 3050 ft 201 kts 190°
2026-05-07 16:10 49.27638 -123.54607 3018 ft 202 kts 189°
2026-05-07 16:11 49.26270 -123.54496 2990 ft 196 kts 156°
2026-05-07 16:11 49.25097 -123.53456 3007 ft 196 kts 146°
2026-05-07 16:11 49.24178 -123.51949 2981 ft 196 kts 109°
2026-05-07 16:11 49.23994 -123.49901 3015 ft 196 kts 96°
2026-05-07 16:12 49.23777 -123.47820 3010 ft 199 kts 101°
2026-05-07 16:12 49.23526 -123.45786 3007 ft 190 kts 100°
2026-05-07 16:12 49.23290 -123.43822 3013 ft 186 kts 100°
2026-05-07 16:12 49.23059 -123.41864 2907 ft 187 kts 100°
2026-05-07 16:13 49.22829 -123.39904 2654 ft 187 kts 100°
2026-05-07 16:13 49.22602 -123.37962 2406 ft 184 kts 100°
2026-05-07 16:13 49.22380 -123.36066 2155 ft 178 kts 99°
2026-05-07 16:13 49.22164 -123.34222 1915 ft 174 kts 99°
2026-05-07 16:14 49.21956 -123.32437 1676 ft 166 kts 99°
2026-05-07 16:14 49.21756 -123.30724 1497 ft 162 kts 99°
2026-05-07 16:14 49.21561 -123.29048 1249 ft 161 kts 99°
2026-05-07 16:14 49.21365 -123.27363 1023 ft 159 kts 100°
2026-05-07 16:15 49.21181 -123.25771 786 ft 141 kts 100°
2026-05-07 16:15 49.21018 -123.24368 597 ft 131 kts 100°
2026-05-07 16:15 49.20861 -123.23007 429 ft 131 kts 100°
2026-05-07 16:15 49.20698 -123.21615 238 ft 135 kts 100°
2026-05-07 16:16 49.20540 -123.20196 67 ft 135 kts 100°
2026-05-07 16:16 49.20375 -123.18820 12 ft 121 kts 99°
2026-05-07 16:16 49.20255 -123.17782 8 ft 78 kts 100°
2026-05-07 16:16 49.20183 -123.17138 10 ft 37 kts 100°
2026-05-07 16:17 49.20073 -123.16832 10 ft 33 kts 128°
2026-05-07 16:17 49.20002 -123.16702 9 ft 12 kts 130°
2026-05-07 16:17 49.19946 -123.16619 9 ft 11 kts 167°
2026-05-07 16:17 49.19921 -123.16715 8 ft 12 kts 276°
2026-05-07 16:18 49.19936 -123.16846 8 ft 13 kts 281°
2026-05-07 16:18 49.19950 -123.16980 8 ft 13 kts 279°
2026-05-07 16:18 49.19947 -123.17107 8 ft 12 kts 236°
2026-05-07 16:18 49.19902 -123.17207 8 ft 12 kts 271°
2026-05-07 16:19 49.19887 -123.17288 8 ft 7 kts 218°
2026-05-07 16:19 49.19852 -123.17326 10 ft 1 kts 217°
2026-05-07 16:19 49.19847 -123.17332 8 ft 0 kts 217°